Year,Month,Day,Hour,Minute,Value (Times are PST for temperature in C)
2012,08,21,00,00,15.60
2012,08,21,00,01,15.60
2012,08,21,00,02,15.60
2012,08,21,00,03,15.60
2012,08,21,00,04,15.60
2012,08,21,00,05,15.60
2012,08,21,00,06,15.50
2012,08,21,00,07,15.50
2012,08,21,00,08,15.50
2012,08,21,00,09,15.40
2012,08,21,00,10,15.40
2012,08,21,00,11,15.30
2012,08,21,00,12,15.20
2012,08,21,00,13,15.20
2012,08,21,00,14,15.10
2012,08,21,00,15,15.10
2012,08,21,00,16,15.10
2012,08,21,00,17,15.00
2012,08,21,00,18,15.00
2012,08,21,00,19,14.90
2012,08,21,00,20,14.90
2012,08,21,00,21,14.80
2012,08,21,00,22,14.80
2012,08,21,00,23,14.80
2012,08,21,00,24,14.70
2012,08,21,00,25,14.70
2012,08,21,00,26,14.60
2012,08,21,00,27,14.50
2012,08,21,00,28,14.50
2012,08,21,00,29,14.40
2012,08,21,00,30,14.30
2012,08,21,00,31,14.30
2012,08,21,00,32,14.20
2012,08,21,00,33,14.20
2012,08,21,00,34,14.20
2012,08,21,00,35,14.20
2012,08,21,00,36,14.20
2012,08,21,00,37,14.20
2012,08,21,00,38,14.10
2012,08,21,00,39,14.10
2012,08,21,00,40,14.10
2012,08,21,00,41,14.10
2012,08,21,00,42,14.10
2012,08,21,00,43,14.10
2012,08,21,00,44,14.10
2012,08,21,00,45,14.10
2012,08,21,00,46,14.10
2012,08,21,00,47,14.10
2012,08,21,00,48,14.10
2012,08,21,00,49,14.10
2012,08,21,00,50,14.10
2012,08,21,00,51,14.10
2012,08,21,00,52,14.10
2012,08,21,00,53,14.10
2012,08,21,00,54,14.10
2012,08,21,00,55,14.10
2012,08,21,00,56,14.10
2012,08,21,00,57,14.10
2012,08,21,00,58,14.10
2012,08,21,00,59,14.10
2012,08,21,01,00,14.10
2012,08,21,01,01,14.00
2012,08,21,01,02,14.00
2012,08,21,01,03,14.00
2012,08,21,01,04,14.00
2012,08,21,01,05,14.00
2012,08,21,01,06,14.00
2012,08,21,01,07,14.00
2012,08,21,01,08,14.00
2012,08,21,01,09,14.00
2012,08,21,01,10,14.00
2012,08,21,01,11,14.00
2012,08,21,01,12,13.90
2012,08,21,01,13,13.90
2012,08,21,01,14,13.90
2012,08,21,01,15,13.90
2012,08,21,01,16,13.90
2012,08,21,01,17,13.90
2012,08,21,01,18,13.90
2012,08,21,01,19,13.90
2012,08,21,01,20,13.80
2012,08,21,01,21,13.80
2012,08,21,01,22,13.80
2012,08,21,01,23,13.70
2012,08,21,01,24,13.80
2012,08,21,01,25,13.80
2012,08,21,01,26,13.80
2012,08,21,01,27,13.80
2012,08,21,01,28,13.70
2012,08,21,01,29,13.70
2012,08,21,01,30,13.70
2012,08,21,01,31,13.80
2012,08,21,01,32,13.80
2012,08,21,01,33,13.80
2012,08,21,01,34,13.80
2012,08,21,01,35,13.70
2012,08,21,01,36,13.70
2012,08,21,01,37,13.70
2012,08,21,01,38,13.70
2012,08,21,01,39,13.70
2012,08,21,01,40,13.70
2012,08,21,01,41,13.70
2012,08,21,01,42,13.80
2012,08,21,01,43,13.80
2012,08,21,01,44,13.80
2012,08,21,01,45,13.70
2012,08,21,01,46,13.70
2012,08,21,01,47,13.70
2012,08,21,01,48,13.70
2012,08,21,01,49,13.70
2012,08,21,01,50,13.70
2012,08,21,01,51,13.60
2012,08,21,01,52,13.60
2012,08,21,01,53,13.60
2012,08,21,01,54,13.60
2012,08,21,01,55,13.60
2012,08,21,01,56,13.60
2012,08,21,01,57,13.60
2012,08,21,01,58,13.60
2012,08,21,01,59,13.60
2012,08,21,02,00,13.60
2012,08,21,02,01,13.60
2012,08,21,02,02,13.50
2012,08,21,02,03,13.50
2012,08,21,02,04,13.50
2012,08,21,02,05,13.50
2012,08,21,02,06,13.50
2012,08,21,02,07,13.60
2012,08,21,02,08,13.50
2012,08,21,02,09,13.50
2012,08,21,02,10,13.50
2012,08,21,02,11,13.50
2012,08,21,02,12,13.50
2012,08,21,02,13,13.50
2012,08,21,02,14,13.50
2012,08,21,02,15,13.50
2012,08,21,02,16,13.50
2012,08,21,02,17,13.40
2012,08,21,02,18,13.40
2012,08,21,02,19,13.40
2012,08,21,02,20,13.40
2012,08,21,02,21,13.40
2012,08,21,02,22,13.40
2012,08,21,02,23,13.40
2012,08,21,02,24,13.30
2012,08,21,02,25,13.30
2012,08,21,02,26,13.30
2012,08,21,02,27,13.30
2012,08,21,02,28,13.30
2012,08,21,02,29,13.30
2012,08,21,02,30,13.30
2012,08,21,02,31,13.30
2012,08,21,02,32,13.30
2012,08,21,02,33,13.30
2012,08,21,02,34,13.20
2012,08,21,02,35,13.20
2012,08,21,02,36,13.20
2012,08,21,02,37,13.20
2012,08,21,02,38,13.20
2012,08,21,02,39,13.20
2012,08,21,02,40,13.20
2012,08,21,02,41,13.20
2012,08,21,02,42,13.20
2012,08,21,02,43,13.20
2012,08,21,02,44,13.20
2012,08,21,02,45,13.20
2012,08,21,02,46,13.10
2012,08,21,02,47,13.10
2012,08,21,02,48,13.10
2012,08,21,02,49,13.10
2012,08,21,02,50,13.00
2012,08,21,02,51,13.00
2012,08,21,02,52,13.00
2012,08,21,02,53,13.00
2012,08,21,02,54,12.90
2012,08,21,02,55,12.90
2012,08,21,02,56,12.90
2012,08,21,02,57,12.90
2012,08,21,02,58,12.90
2012,08,21,02,59,12.90
2012,08,21,03,00,12.90
2012,08,21,03,01,12.80
2012,08,21,03,02,12.80
2012,08,21,03,03,12.80
2012,08,21,03,04,12.80
2012,08,21,03,05,12.80
2012,08,21,03,06,12.70
2012,08,21,03,07,12.70
2012,08,21,03,08,12.70
2012,08,21,03,09,12.60
2012,08,21,03,10,12.60
2012,08,21,03,11,12.60
2012,08,21,03,12,12.60
2012,08,21,03,13,12.60
2012,08,21,03,14,12.70
2012,08,21,03,15,12.70
2012,08,21,03,16,12.60
2012,08,21,03,17,12.60
2012,08,21,03,18,12.60
2012,08,21,03,19,12.60
2012,08,21,03,20,12.60
2012,08,21,03,21,12.60
2012,08,21,03,22,12.70
2012,08,21,03,23,12.70
2012,08,21,03,24,12.70
2012,08,21,03,25,12.70
2012,08,21,03,26,12.70
2012,08,21,03,27,12.70
2012,08,21,03,28,12.80
2012,08,21,03,29,12.80
2012,08,21,03,30,12.80
2012,08,21,03,31,12.80
2012,08,21,03,32,12.80
2012,08,21,03,33,12.80
2012,08,21,03,34,12.80
2012,08,21,03,35,12.80
2012,08,21,03,36,12.80
2012,08,21,03,37,12.80
2012,08,21,03,38,12.80
2012,08,21,03,39,12.80
2012,08,21,03,40,12.80
2012,08,21,03,41,12.70
2012,08,21,03,42,12.60
2012,08,21,03,43,12.60
2012,08,21,03,44,12.50
2012,08,21,03,45,12.40
2012,08,21,03,46,12.30
2012,08,21,03,47,12.30
2012,08,21,03,48,12.30
2012,08,21,03,49,12.30
2012,08,21,03,50,12.20
2012,08,21,03,51,12.20
2012,08,21,03,52,12.20
2012,08,21,03,53,12.20
2012,08,21,03,54,12.10
2012,08,21,03,55,12.10
2012,08,21,03,56,12.10
2012,08,21,03,57,12.10
2012,08,21,03,58,12.10
2012,08,21,03,59,12.10
2012,08,21,04,00,12.10
2012,08,21,04,01,12.10
2012,08,21,04,02,12.00
2012,08,21,04,03,12.00
2012,08,21,04,04,12.00
2012,08,21,04,05,12.00
2012,08,21,04,06,12.10
2012,08,21,04,07,12.10
2012,08,21,04,08,12.10
2012,08,21,04,09,12.10
2012,08,21,04,10,12.20
2012,08,21,04,11,12.20
2012,08,21,04,12,12.20
2012,08,21,04,13,12.20
2012,08,21,04,14,12.20
2012,08,21,04,15,12.20
2012,08,21,04,16,12.20
2012,08,21,04,17,12.20
2012,08,21,04,18,12.10
2012,08,21,04,19,12.10
2012,08,21,04,20,12.10
2012,08,21,04,21,12.10
2012,08,21,04,22,12.10
2012,08,21,04,23,12.00
2012,08,21,04,24,12.00
2012,08,21,04,25,12.00
2012,08,21,04,26,11.90
2012,08,21,04,27,11.90
2012,08,21,04,28,11.90
2012,08,21,04,29,11.90
2012,08,21,04,30,11.90
2012,08,21,04,31,11.90
2012,08,21,04,32,11.90
2012,08,21,04,33,11.90
2012,08,21,04,34,11.90
2012,08,21,04,35,12.00
2012,08,21,04,36,12.00
2012,08,21,04,37,12.00
2012,08,21,04,38,12.10
2012,08,21,04,39,12.10
2012,08,21,04,40,12.10
2012,08,21,04,41,12.10
2012,08,21,04,42,12.10
2012,08,21,04,43,12.10
2012,08,21,04,44,12.10
2012,08,21,04,45,12.20
2012,08,21,04,46,12.20
2012,08,21,04,47,12.20
2012,08,21,04,48,12.20
2012,08,21,04,49,12.20
2012,08,21,04,50,12.30
2012,08,21,04,51,12.30
2012,08,21,04,52,12.30
2012,08,21,04,53,12.30
2012,08,21,04,54,12.30
2012,08,21,04,55,12.30
2012,08,21,04,56,12.30
2012,08,21,04,57,12.30
2012,08,21,04,58,12.30
2012,08,21,04,59,12.30
2012,08,21,05,00,12.30
2012,08,21,05,01,12.30
2012,08,21,05,02,12.30
2012,08,21,05,03,12.30
2012,08,21,05,04,12.40
2012,08,21,05,05,12.40
2012,08,21,05,06,12.40
2012,08,21,05,07,12.40
2012,08,21,05,08,12.40
2012,08,21,05,09,12.40
2012,08,21,05,10,12.40
2012,08,21,05,11,12.40
2012,08,21,05,12,12.40
2012,08,21,05,13,12.40
2012,08,21,05,14,12.50
2012,08,21,05,15,12.50
2012,08,21,05,16,12.50
2012,08,21,05,17,12.50
2012,08,21,05,18,12.50
2012,08,21,05,19,12.50
2012,08,21,05,20,12.60
2012,08,21,05,21,12.60
2012,08,21,05,22,12.60
2012,08,21,05,23,12.60
2012,08,21,05,24,12.60
2012,08,21,05,25,12.60
2012,08,21,05,26,12.70
2012,08,21,05,27,12.70
2012,08,21,05,28,12.70
2012,08,21,05,29,12.70
2012,08,21,05,30,12.70
2012,08,21,05,31,12.70
2012,08,21,05,32,12.70
2012,08,21,05,33,12.70
2012,08,21,05,34,12.70
2012,08,21,05,35,12.70
2012,08,21,05,36,12.70
2012,08,21,05,37,12.70
2012,08,21,05,38,12.70
2012,08,21,05,39,12.70
2012,08,21,05,40,12.70
2012,08,21,05,41,12.70
2012,08,21,05,42,12.70
2012,08,21,05,43,12.70
2012,08,21,05,44,12.70
2012,08,21,05,45,12.70
2012,08,21,05,46,12.70
2012,08,21,05,47,12.70
2012,08,21,05,48,12.70
2012,08,21,05,49,12.70
2012,08,21,05,50,12.70
2012,08,21,05,51,12.70
2012,08,21,05,52,12.70
2012,08,21,05,53,12.70
2012,08,21,05,54,12.70
2012,08,21,05,55,12.70
2012,08,21,05,56,12.70
2012,08,21,05,57,12.70
2012,08,21,05,58,12.70
2012,08,21,05,59,12.70
2012,08,21,06,00,12.70
2012,08,21,06,01,12.70
2012,08,21,06,02,12.70
2012,08,21,06,03,12.70
2012,08,21,06,04,12.70
2012,08,21,06,05,12.60
2012,08,21,06,06,12.60
2012,08,21,06,07,12.70
2012,08,21,06,08,12.70
2012,08,21,06,09,12.70
2012,08,21,06,10,12.70
2012,08,21,06,11,12.70
2012,08,21,06,12,12.70
2012,08,21,06,13,12.70
2012,08,21,06,14,12.70
2012,08,21,06,15,12.70
2012,08,21,06,16,12.70
2012,08,21,06,17,12.70
2012,08,21,06,18,12.80
2012,08,21,06,19,12.80
2012,08,21,06,20,12.80
2012,08,21,06,21,12.80
2012,08,21,06,22,12.80
2012,08,21,06,23,12.80
2012,08,21,06,24,12.80
2012,08,21,06,25,12.80
2012,08,21,06,26,12.80
2012,08,21,06,27,12.80
2012,08,21,06,28,12.80
2012,08,21,06,29,12.90
2012,08,21,06,30,12.90
2012,08,21,06,31,12.90
2012,08,21,06,32,12.90
2012,08,21,06,33,13.00
2012,08,21,06,34,13.00
2012,08,21,06,35,13.00
2012,08,21,06,36,13.00
2012,08,21,06,37,13.00
2012,08,21,06,38,13.10
2012,08,21,06,39,13.10
2012,08,21,06,40,13.10
2012,08,21,06,41,13.10
2012,08,21,06,42,13.10
2012,08,21,06,43,13.20
2012,08,21,06,44,13.20
2012,08,21,06,45,13.20
2012,08,21,06,46,13.20
2012,08,21,06,47,13.20
2012,08,21,06,48,13.20
2012,08,21,06,49,13.20
2012,08,21,06,50,13.20
2012,08,21,06,51,13.30
2012,08,21,06,52,13.30
2012,08,21,06,53,13.30
2012,08,21,06,54,13.30
2012,08,21,06,55,13.30
2012,08,21,06,56,13.30
2012,08,21,06,57,13.30
2012,08,21,06,58,13.30
2012,08,21,06,59,13.30
2012,08,21,07,00,13.30
2012,08,21,07,01,13.30
2012,08,21,07,02,13.30
2012,08,21,07,03,13.30
2012,08,21,07,04,13.30
2012,08,21,07,05,13.30
2012,08,21,07,06,13.30
2012,08,21,07,07,13.30
2012,08,21,07,08,13.30
2012,08,21,07,09,13.30
2012,08,21,07,10,13.40
2012,08,21,07,11,13.40
2012,08,21,07,12,13.40
2012,08,21,07,13,13.40
2012,08,21,07,14,13.50
2012,08,21,07,15,13.50
2012,08,21,07,16,13.50
2012,08,21,07,17,13.60
2012,08,21,07,18,13.60
2012,08,21,07,19,13.60
2012,08,21,07,20,13.60
2012,08,21,07,21,13.70
2012,08,21,07,22,13.70
2012,08,21,07,23,13.70
2012,08,21,07,24,13.70
2012,08,21,07,25,13.70
2012,08,21,07,26,13.70
2012,08,21,07,27,13.70
2012,08,21,07,28,13.80
2012,08,21,07,29,13.80
2012,08,21,07,30,13.80
2012,08,21,07,31,13.80
2012,08,21,07,32,13.90
2012,08,21,07,33,13.90
2012,08,21,07,34,13.90
2012,08,21,07,35,14.00
2012,08,21,07,36,14.00
2012,08,21,07,37,14.10
2012,08,21,07,38,14.10
2012,08,21,07,39,14.10
2012,08,21,07,40,14.20
2012,08,21,07,41,14.20
2012,08,21,07,42,14.20
2012,08,21,07,43,14.20
2012,08,21,07,44,14.30
2012,08,21,07,45,14.40
2012,08,21,07,46,14.40
2012,08,21,07,47,14.50
2012,08,21,07,48,14.50
2012,08,21,07,49,14.50
2012,08,21,07,50,14.60
2012,08,21,07,51,14.60
2012,08,21,07,52,14.60
2012,08,21,07,53,14.70
2012,08,21,07,54,14.70
2012,08,21,07,55,14.80
2012,08,21,07,56,14.80
2012,08,21,07,57,14.80
2012,08,21,07,58,14.80
2012,08,21,07,59,14.90
2012,08,21,08,00,14.90
2012,08,21,08,01,14.90
2012,08,21,08,02,15.00
2012,08,21,08,03,15.00
2012,08,21,08,04,15.10
2012,08,21,08,05,15.20
2012,08,21,08,06,15.20
2012,08,21,08,07,15.20
2012,08,21,08,08,15.30
2012,08,21,08,09,15.30
2012,08,21,08,10,15.30
2012,08,21,08,11,15.30
2012,08,21,08,12,15.40
2012,08,21,08,13,15.40
2012,08,21,08,14,15.50
2012,08,21,08,15,15.50
2012,08,21,08,17,15.60
